Regional Weather Roundup
Issued by NWS Jackson, KY

Home | Current Version | Previous Version | Graphics & Text | Print | Product List | Glossary On
Versions: 1 2 3 4 5 6 7 8 9 10 11 12 13 14 15 16 17 18 19 20 21 22 23 24 25 26 27
000
ASUS43 KJKL 231710
RWRJKL

EAST KENTUCKY HOURLY WEATHER ROUNDUP
NATIONAL WEATHER SERVICE JACKSON KY
1200 PM EST THU NOV 23 2017

NOTE: "FAIR" INDICATES FEW OR NO CLOUDS BELOW 12,000 FEET WITH
NO SIGNIFICANT WEATHER AND/OR OBSTRUCTIONS TO VISIBILITY.

* THESE REPORTS ARE NOT UNDER NWS QUALITY CONTROL AND MAY NOT
  REPORT WEATHER SUCH AS PRECIPITATION AND FOG.

KYZ079-080-083-085-087-088-110-112-115-119-120-231800
...EASTERN KENTUCKY...

CITY           SKY/WX    TMP DP  RH WIND       PRES   REMARKS
JACKSON        SUNNY     40  26  57 VRB3      30.10F
LONDON         SUNNY     41  26  55 CALM      30.11F
SOMERSET*      SUNNY     41  28  60 CALM      30.13F
MONTICELLO*    SUNNY     43  30  60 NE8       30.13F
WILLIAMSBURG*  SUNNY     41  28  60 CALM      30.11F
MIDDLESBORO*   SUNNY     46  30  54 CALM      30.11F
HARLAN APT*    SUNNY     45  27  49 CALM      30.09F
PIKE CO APT*     N/A     40  26  58 CALM      30.10F
BIG SANDY APT* SUNNY     41  27  58 S3        30.11F
MOREHEAD APT*  SUNNY     39  25  56 CALM      30.14F
$$

KYZ035-036-041-042-044-050-067-078-099-231800
...CENTRAL KENTUCKY...

CITY           SKY/WX    TMP DP  RH WIND       PRES   REMARKS
MT STERLING*   SUNNY     39  28  65 CALM      30.13F
FLEMING/MASON* PTSUNNY   38  27  64 S6        30.13F WCI  33
DANVILLE*      SUNNY     41  27  56 CALM      30.12F
LEXINGTON      SUNNY     40  26  57 SE3       30.12F
FRANKFORT      SUNNY     41  23  48 VRB3      30.11F
LOUISVILLE     MOSUNNY   42  27  55 VRB3      30.13F
LEBANON*         N/A     41  25  52 CALM      30.12F
GLASGOW*       SUNNY     45  28  51 S3        30.12F
BOWLING GREEN  SUNNY     44  27  51 CALM      30.14F
$$

KYZ091>093-OHZ055-061-077-WVZ005-015-034-035-042-231800
...SOUTHERN OHIO/WEST VIRGINIA...

CITY           SKY/WX    TMP DP  RH WIND       PRES   REMARKS
COVINGTON      PTSUNNY   40  28  62 S8        30.11F WCI  34
COLUMBUS       MOSUNNY   37  25  61 SW8       30.12F WCI  31
DAYTON         PTSUNNY   38  27  64 S8        30.10F WCI  32
WILMINGTON     PTSUNNY   38  28  67 S7        30.10F WCI  33
HUNTINGTON     MOSUNNY   38  25  59 VRB3      30.13F
CHARLESTON     PTSUNNY   41  26  55 S5        30.12F
PINEVILLE*     SUNNY     43  22  44 MISG      30.13F
BECKLEY        SUNNY     41  18  39 N3        30.05F
BLUEFIELD      SUNNY     43   8  23 SW5       30.05F
LOGAN CO APT*    N/A     39  25  56 CALM      30.08F
$$

VAZ002-007-008-TNZ017-027-036-066-071-231800
...SOUTHWEST VIRGINIA/EAST TENNESSEE...

CITY           SKY/WX    TMP DP  RH WIND       PRES   REMARKS
WISE*          SUNNY     45  27  49 CALM      30.07F
JONESVILLE*      N/A     45  27  49 CALM      30.13F
ABINGDON*      SUNNY     49  24  37 SW5       30.07F
BRISTOL        SUNNY     47  27  45 CALM      30.09F
MORRISTOWN*    PTSUNNY   46  27  46 CALM      30.09F
SEVIERVILLE*   SUNNY     48  32  53 CALM      30.10F
KNOXVILLE      PTSUNNY   49  34  56 N6        30.10F
LAFOLLETTE*    SUNNY     46  28  49 VRB3      30.14F
OAK RIDGE      MOSUNNY   48  30  49 VRB3      30.12F
CROSSVILLE     MOSUNNY   46  27  47 NE5       30.09F
NASHVILLE      SUNNY     46  26  45 CALM      30.14F
$$

...KEY TO REMARKS...
VSB - VISIBILITY IN MILES
WCI - WIND CHILL INDEX
HX  - HEAT INDEX

$$




USA.gov is the U.S. government's official web portal to all federal, state and local government web resources and services.